UKR0735 UKLL-ENZV

Flight info

Callsign UKR0735
Flight time 2h 18m
Altitude 40000
Route GOTIX L621 GRUDA N133 KARTI DCT LARMA DCT SABAK L617 REPKU DCT ENOVA DCT IDIPI
Aircraft A333/H-SDE3GHIJ2J3J5M1RVWXY/LB2D1

Departure

Time 2026-04-17 18:52
Airport Lviv International Airport (UKLL)

Arrival

Time 2026-04-17 21:10
Airport Stavanger Airport, Sola (ENZV)
Time Latitude Longitude Altitude Speed Heading
2026-04-17 18:21 49.81140 23.96080 1069 ft 0 kts 45°
2026-04-17 18:41 49.81139 23.96079 1067 ft 1 kts 45°
2026-04-17 18:41 49.81125 23.96055 1072 ft 4 kts 55°
2026-04-17 18:42 49.81114 23.96024 1071 ft 4 kts 72°
2026-04-17 18:42 49.81111 23.95985 1072 ft 4 kts 109°
2026-04-17 18:42 49.81117 23.95967 1072 ft 2 kts 136°
2026-04-17 18:45 49.81111 23.95977 1072 ft 2 kts 136°
2026-04-17 18:45 49.81093 23.96003 1069 ft 4 kts 138°
2026-04-17 18:45 49.81087 23.96010 1071 ft 0 kts 139°
2026-04-17 18:45 49.81073 23.96021 1069 ft 7 kts 156°
2026-04-17 18:46 49.81022 23.96030 1070 ft 8 kts 176°
2026-04-17 18:46 49.80964 23.96025 1069 ft 9 kts 181°
2026-04-17 18:46 49.80895 23.96030 1068 ft 11 kts 172°
2026-04-17 18:46 49.80821 23.96078 1067 ft 12 kts 147°
2026-04-17 18:47 49.80761 23.96162 1070 ft 12 kts 135°
2026-04-17 18:47 49.80699 23.96256 1069 ft 13 kts 135°
2026-04-17 18:47 49.80629 23.96363 1071 ft 15 kts 135°
2026-04-17 18:47 49.80553 23.96480 1069 ft 17 kts 135°
2026-04-17 18:48 49.80463 23.96617 1068 ft 19 kts 135°
2026-04-17 18:48 49.80364 23.96768 1066 ft 21 kts 135°
2026-04-17 18:48 49.80255 23.96924 1067 ft 22 kts 139°
2026-04-17 18:48 49.80140 23.97084 1069 ft 22 kts 134°
2026-04-17 18:49 49.80030 23.97253 1069 ft 23 kts 135°
2026-04-17 18:49 49.79937 23.97405 1071 ft 13 kts 96°
2026-04-17 18:49 49.79960 23.97441 1069 ft 1 kts 342°
2026-04-17 18:49 49.79964 23.97420 1072 ft 5 kts 288°
2026-04-17 18:50 49.79990 23.97326 1069 ft 12 kts 301°
2026-04-17 18:50 49.80010 23.97290 1069 ft 1 kts 314°
2026-04-17 18:50 49.80015 23.97281 1070 ft 0 kts 314°
2026-04-17 18:50 49.80022 23.97270 1069 ft 3 kts 314°
2026-04-17 18:51 49.80050 23.97224 1069 ft 17 kts 314°
2026-04-17 18:51 49.80308 23.96838 1069 ft 86 kts 316°
2026-04-17 18:51 49.80900 23.95952 1074 ft 148 kts 316°
2026-04-17 18:51 49.81712 23.94724 1542 ft 173 kts 317°
2026-04-17 18:52 49.82588 23.93339 2292 ft 180 kts 318°
2026-04-17 18:52 49.83361 23.92068 2823 ft 147 kts 319°
2026-04-17 18:52 49.84018 23.90973 3058 ft 133 kts 318°
2026-04-17 18:52 49.84651 23.89925 3288 ft 137 kts 318°
2026-04-17 18:53 49.85347 23.88803 3646 ft 153 kts 318°
2026-04-17 18:53 49.86132 23.87569 4209 ft 168 kts 318°
2026-04-17 18:53 49.86984 23.86266 4927 ft 183 kts 318°
2026-04-17 18:53 49.87946 23.84814 5540 ft 203 kts 318°
2026-04-17 18:54 49.88980 23.83147 6129 ft 228 kts 308°
2026-04-17 18:54 49.89816 23.80900 6630 ft 250 kts 302°
2026-04-17 18:54 49.90677 23.78483 7410 ft 260 kts 297°
2026-04-17 18:54 49.91198 23.75761 8328 ft 269 kts 280°
2026-04-17 18:55 49.91056 23.72824 9303 ft 280 kts 259°
2026-04-17 18:55 49.90582 23.69876 10196 ft 284 kts 265°
2026-04-17 18:55 49.90391 23.66733 10654 ft 302 kts 271°
2026-04-17 18:55 49.90332 23.63364 11038 ft 322 kts 273°
2026-04-17 18:56 49.90304 23.59847 11668 ft 332 kts 273°
2026-04-17 18:56 49.90276 23.56274 12445 ft 338 kts 274°
2026-04-17 18:56 49.90246 23.52596 13244 ft 343 kts 274°
2026-04-17 18:56 49.90260 23.48848 14059 ft 346 kts 279°
2026-04-17 18:57 49.90752 23.45223 14768 ft 343 kts 296°
2026-04-17 18:57 49.91905 23.42024 15530 ft 339 kts 309°
2026-04-17 18:57 49.93319 23.39076 16304 ft 341 kts 312°
2026-04-17 18:57 49.94763 23.36190 17049 ft 344 kts 313°
2026-04-17 18:58 49.96242 23.33231 17758 ft 348 kts 312°
2026-04-17 18:58 49.97726 23.30239 18533 ft 351 kts 312°
2026-04-17 18:58 49.99221 23.27211 19206 ft 353 kts 312°
2026-04-17 18:58 50.00730 23.24189 19895 ft 353 kts 315°
2026-04-17 18:59 50.02453 23.21497 20581 ft 349 kts 326°
2026-04-17 18:59 50.04464 23.19414 21272 ft 347 kts 333°
2026-04-17 18:59 50.06588 23.17625 21952 ft 347 kts 336°
2026-04-17 18:59 50.08763 23.15983 22619 ft 348 kts 338°
2026-04-17 19:00 50.10937 23.14416 23260 ft 349 kts 339°
2026-04-17 19:00 50.13161 23.12825 23873 ft 351 kts 338°
2026-04-17 19:00 50.15383 23.11219 24358 ft 354 kts 338°
2026-04-17 19:00 50.17620 23.09578 24841 ft 357 kts 338°
2026-04-17 19:01 50.19870 23.07904 25307 ft 360 kts 338°
2026-04-17 19:01 50.22138 23.06200 25708 ft 364 kts 338°
2026-04-17 19:01 50.24420 23.04451 26180 ft 367 kts 336°
2026-04-17 19:01 50.26684 23.02591 26664 ft 369 kts 335°
2026-04-17 19:02 50.28180 23.01312 26986 ft 370 kts 334°
2026-04-17 19:02 50.30438 22.99343 27452 ft 372 kts 334°
2026-04-17 19:02 50.32697 22.97355 27910 ft 374 kts 334°
2026-04-17 19:02 50.34973 22.95351 28375 ft 376 kts 334°
2026-04-17 19:03 50.38014 22.92683 28974 ft 379 kts 334°
2026-04-17 19:03 50.39576 22.91318 29273 ft 381 kts 334°
2026-04-17 19:03 50.41875 22.89313 29728 ft 383 kts 334°
2026-04-17 19:03 50.44972 22.86613 30275 ft 386 kts 334°
2026-04-17 19:04 50.46560 22.85228 30509 ft 388 kts 334°
2026-04-17 19:04 50.48936 22.83156 30744 ft 393 kts 334°
2026-04-17 19:04 50.51341 22.81056 30981 ft 398 kts 334°
2026-04-17 19:04 50.53725 22.78972 31270 ft 402 kts 334°
2026-04-17 19:05 50.56181 22.76820 31594 ft 405 kts 334°
2026-04-17 19:05 50.58651 22.74653 31885 ft 408 kts 333°
2026-04-17 19:05 50.61135 22.72472 32183 ft 411 kts 333°
2026-04-17 19:05 50.63648 22.70252 32483 ft 414 kts 333°
2026-04-17 19:06 50.66170 22.67993 32876 ft 415 kts 333°
2026-04-17 19:06 50.68650 22.65753 33281 ft 416 kts 333°
2026-04-17 19:06 50.71163 22.63473 33667 ft 417 kts 332°
2026-04-17 19:06 50.73678 22.61188 34052 ft 417 kts 332°
2026-04-17 19:07 50.76198 22.58897 34389 ft 418 kts 332°
2026-04-17 19:07 50.78731 22.56593 34690 ft 418 kts 332°
2026-04-17 19:07 50.81242 22.54301 35064 ft 417 kts 332°
2026-04-17 19:07 50.83767 22.51988 35327 ft 419 kts 332°
2026-04-17 19:08 50.86293 22.49670 35600 ft 420 kts 332°
2026-04-17 19:08 50.88807 22.47361 35878 ft 421 kts 332°
2026-04-17 19:08 50.91345 22.45027 36148 ft 423 kts 331°
2026-04-17 19:08 50.93889 22.42687 36414 ft 424 kts 331°
2026-04-17 19:09 50.96439 22.40339 36675 ft 425 kts 331°
2026-04-17 19:09 50.99005 22.37974 36932 ft 426 kts 331°
2026-04-17 19:09 51.01575 22.35606 37198 ft 427 kts 331°
2026-04-17 19:09 51.04154 22.33233 37455 ft 428 kts 331°
2026-04-17 19:10 51.06736 22.30857 37678 ft 429 kts 331°
2026-04-17 19:10 51.09322 22.28476 37994 ft 429 kts 331°
2026-04-17 19:10 51.11903 22.26095 38249 ft 430 kts 330°
2026-04-17 19:10 51.14497 22.23699 38463 ft 431 kts 330°
2026-04-17 19:11 51.17100 22.21291 38704 ft 432 kts 330°
2026-04-17 19:11 51.19672 22.18909 38927 ft 433 kts 330°
2026-04-17 19:11 51.22277 22.16492 39120 ft 434 kts 330°
2026-04-17 19:11 51.24888 22.14066 39310 ft 434 kts 330°
2026-04-17 19:12 51.27500 22.11637 39497 ft 435 kts 330°
2026-04-17 19:12 51.30116 22.09204 39688 ft 435 kts 330°
2026-04-17 19:12 51.32736 22.06774 39879 ft 436 kts 330°
2026-04-17 19:12 51.35361 22.04340 40064 ft 436 kts 330°
2026-04-17 19:13 51.37993 22.01899 40186 ft 438 kts 330°
2026-04-17 19:13 51.40630 21.99450 40205 ft 439 kts 330°
2026-04-17 19:13 51.45937 21.94586 40208 ft 439 kts 331°
2026-04-17 19:14 51.51260 21.89764 40208 ft 439 kts 331°
2026-04-17 19:14 51.56592 21.84933 40208 ft 439 kts 331°
2026-04-17 19:15 51.61884 21.80118 40211 ft 439 kts 331°
2026-04-17 19:15 51.67206 21.75257 40215 ft 439 kts 331°
2026-04-17 19:16 51.72511 21.70384 40210 ft 439 kts 329°
2026-04-17 19:16 51.77409 21.64490 40213 ft 440 kts 322°
2026-04-17 19:17 51.82057 21.58128 40214 ft 440 kts 320°
2026-04-17 19:17 51.86721 21.51571 40216 ft 449 kts 320°
2026-04-17 19:18 51.91457 21.44889 40196 ft 452 kts 320°
2026-04-17 19:18 51.96203 21.38197 40213 ft 452 kts 320°
2026-04-17 19:19 52.00950 21.31497 40212 ft 451 kts 320°
2026-04-17 19:19 52.05690 21.24791 40206 ft 451 kts 320°
2026-04-17 19:20 52.10410 21.18134 40208 ft 452 kts 321°
2026-04-17 19:20 52.15185 21.11466 40204 ft 452 kts 321°
2026-04-17 19:21 52.19957 21.04796 40211 ft 451 kts 321°
2026-04-17 19:21 52.24719 20.98114 40212 ft 451 kts 321°
2026-04-17 19:22 52.29481 20.91406 40213 ft 451 kts 320°
2026-04-17 19:22 52.34232 20.84692 40235 ft 451 kts 320°
2026-04-17 19:23 52.41325 20.74632 40240 ft 451 kts 320°
2026-04-17 19:24 52.46043 20.67913 40241 ft 450 kts 320°
2026-04-17 19:24 52.50776 20.61157 40229 ft 450 kts 320°
2026-04-17 19:25 52.55502 20.54389 40231 ft 450 kts 320°
2026-04-17 19:25 52.60192 20.47651 40231 ft 450 kts 320°
2026-04-17 19:26 52.64912 20.40853 40226 ft 450 kts 320°
2026-04-17 19:26 52.69608 20.34012 40235 ft 450 kts 317°
2026-04-17 19:27 52.73912 20.26503 40236 ft 450 kts 314°
2026-04-17 19:27 52.78092 20.18850 40237 ft 451 kts 313°
2026-04-17 19:28 52.82244 20.11063 40240 ft 452 kts 312°
2026-04-17 19:28 52.86278 20.03093 40237 ft 452 kts 311°
2026-04-17 19:29 52.90253 19.95123 40242 ft 452 kts 311°
2026-04-17 19:29 52.94270 19.87078 40243 ft 452 kts 311°
2026-04-17 19:30 52.98286 19.79044 40249 ft 452 kts 311°
2026-04-17 19:30 53.02283 19.71032 40254 ft 452 kts 311°
2026-04-17 19:31 53.06309 19.62994 40254 ft 451 kts 313°
2026-04-17 19:31 53.10605 19.55398 40254 ft 450 kts 316°
2026-04-17 19:32 53.15027 19.48009 40265 ft 449 kts 316°
2026-04-17 19:32 53.19407 19.40641 40257 ft 450 kts 316°
2026-04-17 19:33 53.23756 19.33111 40260 ft 451 kts 314°
2026-04-17 19:33 53.27908 19.25245 40257 ft 450 kts 313°
2026-04-17 19:34 53.31959 19.17344 40280 ft 449 kts 312°
2026-04-17 19:34 53.36042 19.09401 40266 ft 449 kts 313°
2026-04-17 19:35 53.40139 19.01461 40274 ft 449 kts 313°
2026-04-17 19:35 53.44236 18.93514 40273 ft 449 kts 313°
2026-04-17 19:36 53.48299 18.85611 40278 ft 449 kts 313°
2026-04-17 19:36 53.52847 18.78523 40284 ft 444 kts 327°
2026-04-17 19:37 53.58284 18.73633 40282 ft 444 kts 336°
2026-04-17 19:37 53.63919 18.69471 40285 ft 444 kts 337°
2026-04-17 19:38 53.69612 18.65411 40280 ft 444 kts 337°
2026-04-17 19:38 53.75303 18.61314 40275 ft 444 kts 337°
2026-04-17 19:39 53.80984 18.57172 40279 ft 444 kts 337°
2026-04-17 19:39 53.86654 18.53012 40284 ft 444 kts 337°
2026-04-17 19:40 53.92320 18.48840 40283 ft 444 kts 336°
2026-04-17 19:40 53.97981 18.44661 40282 ft 444 kts 336°
2026-04-17 19:41 54.03615 18.40492 40286 ft 444 kts 336°
2026-04-17 19:41 54.09275 18.36290 40289 ft 444 kts 336°
2026-04-17 19:42 54.14938 18.32074 40283 ft 444 kts 336°
2026-04-17 19:42 54.20613 18.27837 40293 ft 444 kts 336°
2026-04-17 19:43 54.26272 18.23587 40294 ft 443 kts 335°
2026-04-17 19:43 54.31474 18.17941 40292 ft 444 kts 320°
2026-04-17 19:44 54.35991 18.10793 40291 ft 445 kts 317°
2026-04-17 19:44 54.40398 18.03294 40293 ft 446 kts 316°
2026-04-17 19:45 54.44772 17.95751 40300 ft 446 kts 316°
2026-04-17 19:45 54.49166 17.88199 40293 ft 445 kts 316°
2026-04-17 19:46 54.53519 17.80727 40297 ft 445 kts 316°
2026-04-17 19:46 54.57907 17.73181 40299 ft 445 kts 316°
2026-04-17 19:47 54.62287 17.65624 40295 ft 445 kts 316°
2026-04-17 19:47 54.66658 17.58057 40296 ft 445 kts 316°
2026-04-17 19:48 54.71001 17.50513 40289 ft 444 kts 316°
2026-04-17 19:48 54.75362 17.42914 40296 ft 442 kts 316°
2026-04-17 19:49 54.79685 17.35355 40298 ft 442 kts 316°
2026-04-17 19:49 54.84012 17.27765 40298 ft 442 kts 316°
2026-04-17 19:50 54.88311 17.20202 40298 ft 442 kts 316°
2026-04-17 19:50 54.92637 17.12565 40297 ft 442 kts 316°
2026-04-17 19:51 54.96223 17.06217 40294 ft 442 kts 316°
2026-04-17 19:51 55.01229 16.97325 40296 ft 441 kts 315°
2026-04-17 19:52 55.04827 16.90913 40296 ft 441 kts 315°
2026-04-17 19:52 55.09090 16.83293 40298 ft 441 kts 315°
2026-04-17 19:53 55.13381 16.75596 40297 ft 441 kts 315°
2026-04-17 19:53 55.17642 16.67931 40286 ft 441 kts 315°
2026-04-17 19:54 55.21933 16.60185 40295 ft 442 kts 315°
2026-04-17 19:54 55.26206 16.52449 40295 ft 442 kts 316°
2026-04-17 19:55 55.30751 16.45224 40296 ft 441 kts 320°
2026-04-17 19:55 55.35370 16.38209 40295 ft 441 kts 320°
2026-04-17 19:56 55.40025 16.31188 40298 ft 441 kts 320°
2026-04-17 19:56 55.44677 16.24146 40298 ft 441 kts 320°
2026-04-17 19:57 55.49321 16.17080 40301 ft 441 kts 320°
2026-04-17 19:57 55.53964 16.09984 40301 ft 441 kts 320°
2026-04-17 19:58 55.58601 16.02876 40301 ft 442 kts 320°
2026-04-17 19:58 55.63243 15.95738 40300 ft 441 kts 320°
2026-04-17 19:59 55.67876 15.88590 40300 ft 441 kts 320°
2026-04-17 19:59 55.72475 15.81473 40303 ft 441 kts 319°
2026-04-17 20:00 55.77087 15.74311 40298 ft 441 kts 319°
2026-04-17 20:00 55.81698 15.67128 40304 ft 440 kts 319°
2026-04-17 20:01 55.86308 15.59922 40314 ft 441 kts 319°
2026-04-17 20:01 55.90916 15.52695 40303 ft 442 kts 319°
2026-04-17 20:02 55.95497 15.45489 40304 ft 442 kts 319°
2026-04-17 20:02 56.00099 15.38224 40302 ft 440 kts 319°
2026-04-17 20:03 56.04682 15.30965 40304 ft 440 kts 319°
2026-04-17 20:03 56.09246 15.23715 40305 ft 440 kts 319°
2026-04-17 20:04 56.13788 15.16473 40301 ft 440 kts 319°
2026-04-17 20:04 56.18359 15.09161 40305 ft 440 kts 319°
2026-04-17 20:05 56.22930 15.01826 40282 ft 441 kts 318°
2026-04-17 20:05 56.27503 14.94463 40300 ft 441 kts 318°
2026-04-17 20:06 56.32069 14.87086 40301 ft 441 kts 318°
2026-04-17 20:06 56.36601 14.79740 40293 ft 440 kts 318°
2026-04-17 20:07 56.41158 14.72327 40299 ft 440 kts 318°
2026-04-17 20:07 56.45712 14.64896 40292 ft 441 kts 318°
2026-04-17 20:08 56.50260 14.57449 40276 ft 441 kts 318°
2026-04-17 20:08 56.54787 14.50012 40297 ft 441 kts 318°
2026-04-17 20:09 56.59339 14.42508 40288 ft 442 kts 318°
2026-04-17 20:09 56.63888 14.34983 40290 ft 442 kts 318°
2026-04-17 20:10 56.68400 14.27495 40278 ft 442 kts 318°
2026-04-17 20:10 56.72950 14.19919 40280 ft 442 kts 317°
2026-04-17 20:11 56.77463 14.12377 40265 ft 442 kts 317°
2026-04-17 20:11 56.81982 14.04798 40280 ft 440 kts 317°
2026-04-17 20:12 56.86490 13.97213 40274 ft 440 kts 317°
2026-04-17 20:12 56.91001 13.89596 40277 ft 441 kts 317°
2026-04-17 20:13 56.95520 13.81939 40277 ft 442 kts 317°
2026-04-17 20:13 57.00014 13.74298 40282 ft 442 kts 317°
2026-04-17 20:14 57.04527 13.66600 40273 ft 442 kts 317°
2026-04-17 20:14 57.08994 13.58952 40274 ft 440 kts 316°
2026-04-17 20:15 57.13480 13.51245 40280 ft 440 kts 316°
2026-04-17 20:15 57.17952 13.43536 40282 ft 440 kts 316°
2026-04-17 20:16 57.22419 13.35807 40287 ft 440 kts 316°
2026-04-17 20:16 57.26863 13.28091 40280 ft 441 kts 316°
2026-04-17 20:17 57.31334 13.20303 40278 ft 441 kts 316°
2026-04-17 20:17 57.35799 13.12497 40279 ft 441 kts 316°
2026-04-17 20:18 57.40224 13.04734 40278 ft 440 kts 316°
2026-04-17 20:18 57.44674 12.96900 40281 ft 440 kts 316°
2026-04-17 20:19 57.49101 12.89079 40274 ft 440 kts 316°
2026-04-17 20:19 57.53544 12.81204 40276 ft 441 kts 316°
2026-04-17 20:20 57.57975 12.73321 40275 ft 441 kts 315°
2026-04-17 20:20 57.62421 12.65381 40278 ft 442 kts 315°
2026-04-17 20:21 57.66858 12.57432 40268 ft 442 kts 315°
2026-04-17 20:21 57.71268 12.49501 40268 ft 441 kts 315°
2026-04-17 20:22 57.75690 12.41520 40268 ft 441 kts 315°
2026-04-17 20:22 57.80075 12.33579 40267 ft 442 kts 315°
2026-04-17 20:23 57.84501 12.25533 40267 ft 442 kts 315°
2026-04-17 20:23 57.88909 12.17493 40265 ft 441 kts 314°
2026-04-17 20:24 57.93313 12.09429 40272 ft 442 kts 314°
2026-04-17 20:24 57.97706 12.01357 40269 ft 443 kts 314°
2026-04-17 20:25 58.02121 11.93215 40270 ft 443 kts 314°
2026-04-17 20:25 58.06490 11.85129 40269 ft 443 kts 314°
2026-04-17 20:26 58.10891 11.76954 40271 ft 443 kts 314°
2026-04-17 20:26 58.15280 11.68772 40269 ft 443 kts 314°
2026-04-17 20:27 58.19758 11.60734 40272 ft 443 kts 317°
2026-04-17 20:27 58.24465 11.53144 40270 ft 444 kts 319°
2026-04-17 20:28 58.29211 11.45624 40272 ft 444 kts 318°
2026-04-17 20:28 58.33908 11.38085 40269 ft 444 kts 318°
2026-04-17 20:29 58.38611 11.30446 40273 ft 444 kts 318°
2026-04-17 20:29 58.43281 11.22814 40271 ft 444 kts 317°
2026-04-17 20:30 58.50312 11.11272 40276 ft 445 kts 317°
2026-04-17 20:30 58.55012 11.03523 40276 ft 445 kts 317°
2026-04-17 20:31 58.59674 10.95809 40273 ft 446 kts 317°
2026-04-17 20:31 58.64368 10.88016 40274 ft 446 kts 317°
2026-04-17 20:32 58.69049 10.80214 40273 ft 446 kts 317°
2026-04-17 20:32 58.73726 10.72391 40270 ft 447 kts 316°
2026-04-17 20:33 58.78432 10.64488 40273 ft 449 kts 316°
2026-04-17 20:33 58.82737 10.55922 40193 ft 447 kts 309°
2026-04-17 20:34 58.84787 10.51390 39949 ft 446 kts 309°
2026-04-17 20:34 58.86804 10.46834 39711 ft 445 kts 308°
2026-04-17 20:34 58.88803 10.42262 39511 ft 444 kts 308°
2026-04-17 20:34 58.90790 10.37696 39292 ft 443 kts 308°
2026-04-17 20:35 58.92765 10.33101 39059 ft 443 kts 305°
2026-04-17 20:35 58.94384 10.28054 38811 ft 440 kts 294°
2026-04-17 20:35 58.95393 10.22567 38528 ft 438 kts 282°
2026-04-17 20:35 58.95776 10.16731 38241 ft 436 kts 273°
2026-04-17 20:36 58.95902 10.10876 37964 ft 435 kts 271°
2026-04-17 20:36 58.95977 10.05010 37708 ft 434 kts 271°
2026-04-17 20:36 58.96043 9.99152 37426 ft 433 kts 271°
2026-04-17 20:36 58.96106 9.93329 37150 ft 432 kts 271°
2026-04-17 20:37 58.96169 9.87507 36891 ft 432 kts 271°
2026-04-17 20:37 58.96230 9.81689 36630 ft 431 kts 271°
2026-04-17 20:37 58.96289 9.75895 36373 ft 430 kts 271°
2026-04-17 20:37 58.96344 9.70176 36121 ft 429 kts 271°
2026-04-17 20:38 58.96399 9.64390 35865 ft 428 kts 271°
2026-04-17 20:38 58.96450 9.58612 35615 ft 427 kts 271°
2026-04-17 20:38 58.96500 9.52857 35357 ft 425 kts 270°
2026-04-17 20:38 58.96546 9.47198 35118 ft 423 kts 270°
2026-04-17 20:39 58.96589 9.41477 34873 ft 422 kts 270°
2026-04-17 20:39 58.96630 9.35830 34640 ft 421 kts 270°
2026-04-17 20:39 58.96668 9.30213 34400 ft 420 kts 269°
2026-04-17 20:39 58.96703 9.24561 34151 ft 416 kts 269°
2026-04-17 20:40 58.96736 9.19002 33656 ft 410 kts 269°
2026-04-17 20:40 58.96766 9.13495 33109 ft 406 kts 269°
2026-04-17 20:40 58.96794 9.08099 32587 ft 405 kts 269°
2026-04-17 20:40 58.96818 9.02621 32072 ft 409 kts 269°
2026-04-17 20:41 58.96841 8.97078 31567 ft 412 kts 269°
2026-04-17 20:41 58.96862 8.91504 31068 ft 414 kts 268°
2026-04-17 20:41 58.96881 8.85905 30590 ft 414 kts 268°
2026-04-17 20:41 58.96897 8.80324 30056 ft 414 kts 268°
2026-04-17 20:42 58.96911 8.74752 29482 ft 413 kts 268°
2026-04-17 20:42 58.96925 8.69189 28925 ft 410 kts 268°
2026-04-17 20:42 58.96933 8.65540 28570 ft 409 kts 268°
2026-04-17 20:42 58.96940 8.60042 28027 ft 406 kts 267°
2026-04-17 20:43 58.96944 8.54575 27424 ft 404 kts 267°
2026-04-17 20:43 58.96946 8.49191 26805 ft 402 kts 267°
2026-04-17 20:43 58.96946 8.43794 26198 ft 400 kts 267°
2026-04-17 20:43 58.96944 8.38418 25597 ft 397 kts 267°
2026-04-17 20:44 58.96940 8.33073 25027 ft 395 kts 267°
2026-04-17 20:44 58.96934 8.27752 24468 ft 393 kts 266°
2026-04-17 20:44 58.96926 8.22470 23905 ft 391 kts 266°
2026-04-17 20:44 58.96915 8.17216 23253 ft 385 kts 266°
2026-04-17 20:45 58.96905 8.12113 22595 ft 372 kts 266°
2026-04-17 20:45 58.96893 8.07242 21944 ft 359 kts 266°
2026-04-17 20:45 58.96879 8.02450 21327 ft 350 kts 266°
2026-04-17 20:45 58.96862 7.97775 20711 ft 340 kts 266°
2026-04-17 20:46 58.96845 7.93301 20130 ft 332 kts 266°
2026-04-17 20:46 58.96826 7.88834 19574 ft 322 kts 266°
2026-04-17 20:46 58.96806 7.84585 19109 ft 317 kts 266°
2026-04-17 20:46 58.96784 7.80329 18660 ft 315 kts 266°
2026-04-17 20:47 58.96760 7.76074 18150 ft 316 kts 266°
2026-04-17 20:47 58.96735 7.71797 17654 ft 317 kts 266°
2026-04-17 20:47 58.96710 7.67521 17150 ft 317 kts 266°
2026-04-17 20:47 58.96684 7.63240 16674 ft 317 kts 265°
2026-04-17 20:48 58.96656 7.58975 16229 ft 315 kts 265°
2026-04-17 20:48 58.96629 7.54734 15800 ft 312 kts 265°
2026-04-17 20:48 58.96601 7.50594 15386 ft 310 kts 265°
2026-04-17 20:48 58.96569 7.46454 14969 ft 308 kts 265°
2026-04-17 20:49 58.96537 7.42323 14682 ft 302 kts 265°
2026-04-17 20:49 58.96505 7.38290 14493 ft 297 kts 265°
2026-04-17 20:49 58.96470 7.34290 14329 ft 297 kts 265°
2026-04-17 20:49 58.96434 7.30297 14156 ft 296 kts 265°
2026-04-17 20:50 58.96397 7.26302 13990 ft 296 kts 265°
2026-04-17 20:50 58.96360 7.22373 13799 ft 295 kts 265°
2026-04-17 20:50 58.96323 7.18402 13613 ft 294 kts 265°
2026-04-17 20:50 58.96285 7.14439 13425 ft 293 kts 265°
2026-04-17 20:51 58.96244 7.10495 13223 ft 292 kts 264°
2026-04-17 20:51 58.96201 7.06549 13035 ft 291 kts 264°
2026-04-17 20:51 58.96158 7.02626 12849 ft 290 kts 264°
2026-04-17 20:51 58.96115 6.98766 12689 ft 289 kts 264°
2026-04-17 20:52 58.96070 6.94870 12518 ft 288 kts 264°
2026-04-17 20:52 58.95996 6.90994 12329 ft 285 kts 260°
2026-04-17 20:52 58.95762 6.87186 12147 ft 283 kts 257°
2026-04-17 20:52 58.95470 6.83462 11948 ft 282 kts 256°
2026-04-17 20:53 58.95166 6.79716 11779 ft 281 kts 256°
2026-04-17 20:53 58.94860 6.75981 11592 ft 280 kts 256°
2026-04-17 20:53 58.94555 6.72248 11423 ft 279 kts 256°
2026-04-17 20:53 58.94253 6.68566 11171 ft 278 kts 256°
2026-04-17 20:54 58.93954 6.64914 10900 ft 277 kts 256°
2026-04-17 20:54 58.93651 6.61232 10629 ft 275 kts 256°
2026-04-17 20:54 58.93349 6.57574 10349 ft 274 kts 256°
2026-04-17 20:54 58.93050 6.53939 10083 ft 273 kts 256°
2026-04-17 20:55 58.92750 6.50321 9775 ft 271 kts 255°
2026-04-17 20:55 58.92451 6.46774 9472 ft 270 kts 255°
2026-04-17 20:55 58.92147 6.43188 9153 ft 269 kts 255°
2026-04-17 20:55 58.91851 6.39599 8861 ft 270 kts 255°
2026-04-17 20:56 58.91556 6.36037 8602 ft 265 kts 255°
2026-04-17 20:56 58.91260 6.32535 8320 ft 259 kts 255°
2026-04-17 20:56 58.91039 6.29127 8012 ft 258 kts 261°
2026-04-17 20:56 58.91206 6.25645 7747 ft 265 kts 277°
2026-04-17 20:57 58.91927 6.22292 7565 ft 275 kts 296°
2026-04-17 20:57 58.93115 6.19376 7360 ft 281 kts 307°
2026-04-17 20:57 58.94457 6.16620 7174 ft 282 kts 308°
2026-04-17 20:57 58.95814 6.13886 6992 ft 281 kts 308°
2026-04-17 20:58 58.97165 6.11144 6951 ft 281 kts 308°
2026-04-17 20:58 58.98549 6.08498 6944 ft 284 kts 317°
2026-04-17 20:58 59.00356 6.06866 6945 ft 293 kts 349°
2026-04-17 20:58 59.02391 6.06841 6788 ft 293 kts
2026-04-17 20:59 59.04420 6.07318 6557 ft 294 kts
2026-04-17 20:59 59.06434 6.07716 6328 ft 293 kts 358°
2026-04-17 20:59 59.08382 6.07036 6114 ft 286 kts 341°
2026-04-17 20:59 59.10232 6.05878 5862 ft 281 kts 338°
2026-04-17 21:00 59.12069 6.04610 5599 ft 276 kts 337°
2026-04-17 21:00 59.13793 6.03104 5393 ft 266 kts 321°
2026-04-17 21:00 59.15185 6.00827 5160 ft 258 kts 310°
2026-04-17 21:00 59.16442 5.98376 4928 ft 254 kts 308°
2026-04-17 21:01 59.17673 5.95917 4688 ft 253 kts 308°
2026-04-17 21:01 59.18823 5.93393 4459 ft 249 kts 297°
2026-04-17 21:01 59.19575 5.90420 4215 ft 242 kts 283°
2026-04-17 21:01 59.20131 5.87323 4027 ft 240 kts 278°
2026-04-17 21:02 59.20339 5.84182 3906 ft 227 kts 256°
2026-04-17 21:02 59.19867 5.81377 3755 ft 212 kts 229°
2026-04-17 21:02 59.18868 5.79443 3638 ft 201 kts 205°
2026-04-17 21:02 59.17581 5.78533 3510 ft 194 kts 188°
2026-04-17 21:03 59.16267 5.78198 3374 ft 187 kts 184°
2026-04-17 21:03 59.14976 5.77968 3247 ft 185 kts 183°
2026-04-17 21:03 59.13708 5.77738 3134 ft 184 kts 183°
2026-04-17 21:03 59.12430 5.77497 3050 ft 184 kts 183°
2026-04-17 21:04 59.11155 5.77250 3006 ft 184 kts 182°
2026-04-17 21:04 59.09883 5.76999 3007 ft 184 kts 183°
2026-04-17 21:04 59.08616 5.76746 3000 ft 184 kts 184°
2026-04-17 21:04 59.07337 5.76488 2882 ft 184 kts 184°
2026-04-17 21:05 59.06089 5.76015 2625 ft 186 kts 194°
2026-04-17 21:05 59.04972 5.74702 2394 ft 193 kts 216°
2026-04-17 21:05 59.04201 5.72465 2098 ft 206 kts 234°
2026-04-17 21:05 59.03683 5.69919 1987 ft 195 kts 240°
2026-04-17 21:06 59.03254 5.67541 2001 ft 178 kts 238°
2026-04-17 21:06 59.02739 5.65537 1999 ft 160 kts 223°
2026-04-17 21:06 59.01968 5.64120 1851 ft 147 kts 202°
2026-04-17 21:06 59.01041 5.63458 1597 ft 140 kts 183°
2026-04-17 21:07 59.00068 5.63379 1500 ft 141 kts 175°
2026-04-17 21:07 58.99085 5.63414 1502 ft 141 kts 175°
2026-04-17 21:07 58.98122 5.63452 1496 ft 135 kts 174°
2026-04-17 21:07 58.97198 5.63486 1493 ft 131 kts 174°
2026-04-17 21:08 58.96286 5.63517 1498 ft 131 kts 174°
2026-04-17 21:08 58.95376 5.63547 1321 ft 132 kts 174°
2026-04-17 21:08 58.94453 5.63573 1124 ft 133 kts 174°
2026-04-17 21:08 58.93532 5.63605 915 ft 136 kts 176°
2026-04-17 21:09 58.92562 5.63635 708 ft 142 kts 174°
2026-04-17 21:09 58.91566 5.63666 516 ft 143 kts 176°
2026-04-17 21:09 58.90560 5.63696 319 ft 142 kts 176°
2026-04-17 21:09 58.89629 5.63724 144 ft 130 kts 176°
2026-04-17 21:10 58.88745 5.63754 34 ft 123 kts 177°
2026-04-17 21:10 58.88121 5.63778 41 ft 48 kts 179°
2026-04-17 21:10 58.88021 5.63784 40 ft 4 kts 180°
2026-04-17 21:10 58.87930 5.63784 41 ft 21 kts 180°
2026-04-17 21:11 58.87723 5.63789 43 ft 37 kts 179°
2026-04-17 21:11 58.87458 5.63791 48 ft 37 kts 179°
2026-04-17 21:11 58.87207 5.63797 47 ft 34 kts 179°
2026-04-17 21:11 58.86987 5.63768 46 ft 26 kts 211°
2026-04-17 21:12 58.86953 5.63533 48 ft 17 kts 269°
2026-04-17 21:12 58.86961 5.63471 48 ft 2 kts 290°
2026-04-17 21:12 58.86962 5.63462 48 ft 1 kts 290°
2026-04-17 21:12 58.86970 5.63441 45 ft 3 kts 306°
2026-04-17 21:13 58.86994 5.63393 48 ft 7 kts 317°
2026-04-17 21:13 58.87046 5.63330 47 ft 11 kts 336°
2026-04-17 21:13 58.87130 5.63310 47 ft 15 kts 359°
2026-04-17 21:13 58.87249 5.63307 46 ft 19 kts 359°
2026-04-17 21:14 58.87395 5.63304 45 ft 23 kts 359°
2026-04-17 21:14 58.87563 5.63300 43 ft 26 kts 359°
2026-04-17 21:14 58.87752 5.63298 43 ft 28 kts 360°